Location: Cucq
(50.4773°N, 1.6202°E)
Time: 16:35:28
(UTC+00:00)

SL-4 R/B - Pass Details

Date: 07 August 2020
Orbit: 428 x 665 km, 51.6° (Epoch: 18 September)

Event Time Altitude Azimuth Distance (km) Brightness Sun altitude
Exits shadow 01:57:56 41° 270° (W) 644 2.1 -18.3°
Maximum altitude 01:58:58 70° 201° (SSW) 466 1.4 -18.2°
Drops below altitude 10° 02:02:21 10° 117° (ESE) 1,523 4.3 -17.9°
Sets 02:04:26 0° 115° (ESE) 2,389 5.4 -17.8°
